N6YV Weather Reports


Display with metric or nautical units.
time (UTC)temp
F
wind
direction
speed
MPH
gust
MPH
rain 1hr
in
rain 24hr
in
rain mn
in
humidity
%
barometer
mb
20260508114539 47 266 3.0 0.0 0.00 0.00 0.00 34 1009.0
20260508113039 48 269 4.0 0.0 0.00 0.00 0.00 32 1009.0
20260508111538 48 274 5.0 0.0 0.00 0.00 0.00 32 1008.9
20260508110035 49 267 5.0 0.0 0.00 0.00 0.00 31 1008.8
20260508104531 49 252 4.0 0.0 0.00 0.00 0.00 30 1008.9
20260508103040 49 252 5.0 0.0 0.00 0.00 0.00 30 1008.8
20260508101526 49 245 5.0 0.0 0.00 0.00 0.00 35 1008.8
20260508100028 49 248 5.0 0.0 0.00 0.00 0.00 32 1008.7
20260508094522 50 252 4.0 0.0 0.00 0.00 0.00 31 1008.8
20260508093026 50 260 4.0 0.0 0.00 0.00 0.00 29 1008.7
20260508091519 50 256 4.0 0.0 0.00 0.00 0.00 29 1008.6
20260508090017 51 240 2.0 0.0 0.00 0.00 0.00 28 1008.4
20260508084514 52 205 4.0 0.0 0.00 0.00 0.00 29 1008.5
20260508083013 53 249 6.0 0.0 0.00 0.00 0.00 26 1008.4
20260508081514 54 261 5.0 0.0 0.00 0.00 0.00 25 1008.5
20260508080013 53 257 5.0 0.0 0.00 0.00 0.00 25 1008.6
20260508074507 52 260 4.0 0.0 0.00 0.00 0.00 32 1008.6
20260508073006 52 263 3.0 0.0 0.00 0.00 0.00 34 1008.5
20260508071505 52 263 3.0 0.0 0.00 0.00 0.00 34 1008.5
20260508070100 53 263 3.0 0.0 0.00 0.00 0.00 34 1008.4
20260508064600 55 261 3.0 0.0 0.00 0.00 0.00 30 1008.5
20260508063101 56 261 4.0 0.0 0.00 0.00 0.00 32 1008.5
20260508061606 56 245 4.0 0.0 0.00 0.00 0.00 35 1008.4
20260508060121 58 257 5.0 0.0 0.00 0.00 0.00 43 1008.3
20260508054641 58 265 6.0 0.0 0.00 0.00 0.00 44 1008.2
20260508053058 58 252 6.0 0.0 0.00 0.00 0.00 42 1008.2
20260508051558 60 184 3.0 0.0 0.00 0.00 0.00 37 1008.2
20260508050057 62 180 5.0 0.0 0.00 0.00 0.00 30 1008.2
20260508044557 64 264 5.0 0.0 0.00 0.00 0.00 23 1008.2
20260508043059 64 269 7.0 0.0 0.00 0.00 0.00 28 1008.0
20260508041555 63 244 7.0 0.0 0.00 0.00 0.00 29 1007.9
20260508040055 62 231 8.0 0.0 0.00 0.00 0.00 34 1007.8
20260508034554 62 219 5.0 0.0 0.00 0.00 0.00 33 1007.5
20260508033054 63 294 3.0 0.0 0.00 0.00 0.00 30 1007.6
20260508031559 64 319 3.0 0.0 0.00 0.00 0.00 30 1007.1
20260508030059 65 305 2.0 0.0 0.00 0.00 0.00 29 1007.0
20260508024604 66 285 3.0 0.0 0.00 0.00 0.00 28 1006.8
20260508023052 68 267 4.0 0.0 0.00 0.00 0.00 26 1006.7
20260508021552 70 251 6.0 0.0 0.00 0.00 0.00 23 1006.7
20260508014553 72 307 7.0 0.0 0.00 0.00 0.00 22 1006.4
20260508013050 73 323 8.0 0.0 0.00 0.00 0.00 21 1006.2
20260508011552 74 317 8.0 0.0 0.00 0.00 0.00 19 1006.1
20260508010052 75 275 7.0 0.0 0.00 0.00 0.00 20 1006.1
20260508004549 75 351 7.0 0.0 0.00 0.00 0.00 18 1006.1
20260508003050 76 294 8.0 0.0 0.00 0.00 0.00 17 1006.0
20260508001548 76 360 6.0 0.0 0.00 0.00 0.00 17 1005.9
20260508000047 77 307 8.0 0.0 0.00 0.00 0.00 18 1005.8
20260507234547 78 323 8.0 0.0 0.00 0.00 0.00 16 1005.8
20260507233046 78 336 3.0 0.0 0.00 0.00 0.00 15 1005.7
20260507231547 78 339 5.0 0.0 0.00 0.00 0.00 16 1005.6
20260507230044 78 242 7.0 0.0 0.00 0.00 0.00 21 1005.6
20260507224545 79 336 4.0 0.0 0.00 0.00 0.00 17 1005.8
20260507223041 78 309 6.0 0.0 0.00 0.00 0.00 16 1005.9
20260507221540 79 168 6.0 0.0 0.00 0.00 0.00 21 1006.0
20260507220039 79 271 6.0 0.0 0.00 0.00 0.00 15 1006.3
20260507214544 78 337 8.0 0.0 0.00 0.00 0.00 16 1006.4
20260507213036 79 309 6.0 0.0 0.00 0.00 0.00 16 1006.4
20260507211540 78 349 8.0 0.0 0.00 0.00 0.00 16 1006.5
20260507210036 77 294 6.0 0.0 0.00 0.00 0.00 22 1006.5
20260507204529 78 140 8.0 0.0 0.00 0.00 0.00 23 1006.7
20260507203034 78 162 6.0 0.0 0.00 0.00 0.00 24 1006.9
20260507201525 77 167 5.0 0.0 0.00 0.00 0.00 24 1007.1
20260507200024 76 117 4.0 0.0 0.00 0.00 0.00 26 1007.3
20260507194527 76 86 3.0 0.0 0.00 0.00 0.00 26 1007.4
20260507193018 75 125 4.0 0.0 0.00 0.00 0.00 24 1007.6
20260507191516 74 94 4.0 0.0 0.00 0.00 0.00 26 1007.9
20260507190013 74 62 3.0 0.0 0.00 0.00 0.00 26 1008.1
20260507184513 74 105 4.0 0.0 0.00 0.00 0.00 27 1008.4
20260507183014 73 91 3.0 0.0 0.00 0.00 0.00 28 1008.5
20260507181504 71 137 2.0 0.0 0.00 0.00 0.00 31 1008.6
20260507180002 71 20 3.0 0.0 0.00 0.00 0.00 33 1008.7
20260507174613 71 59 3.0 0.0 0.00 0.00 0.00 35 1008.8
20260507173057 69 29 3.0 0.0 0.00 0.00 0.00 38 1008.7
20260507171605 69 57 2.0 0.0 0.00 0.00 0.00 43 1008.8
20260507170050 67 33 2.0 0.0 0.00 0.00 0.00 45 1009.0
20260507164550 66 75 2.0 0.0 0.00 0.00 0.00 46 1009.1
20260507163049 65 75 2.0 0.0 0.00 0.00 0.00 51 1009.1
20260507161542 64 74 3.0 0.0 0.00 0.00 0.00 50 1009.2
20260507160045 63 75 2.0 0.0 0.00 0.00 0.00 53 1009.3
20260507154534 62 88 3.0 0.0 0.00 0.00 0.00 56 1009.3
20260507153033 61 96 2.0 0.0 0.00 0.00 0.00 55 1009.2
20260507151532 61 116 2.0 0.0 0.00 0.00 0.00 56 1009.3
20260507150033 60 117 1.0 0.0 0.00 0.00 0.00 59 1009.2
20260507144535 61 143 2.0 0.0 0.00 0.00 0.00 58 1009.3
20260507143028 60 235 0.0 0.0 0.00 0.00 0.00 55 1009.3
20260507141524 58 240 1.0 0.0 0.00 0.00 0.00 63 1009.4
20260507140022 55 240 1.0 0.0 0.00 0.00 0.00 66 1009.4
20260507134522 53 240 2.0 0.0 0.00 0.00 0.00 69 1009.3
20260507133022 51 238 3.0 0.0 0.00 0.00 0.00 71 1009.2
20260507131521 50 238 2.0 0.0 0.00 0.00 0.00 70 1009.2
20260507130026 50 237 3.0 0.0 0.00 0.00 0.00 70 1009.1
20260507124531 50 241 5.0 0.0 0.00 0.00 0.00 70 1009.1
20260507123017 51 263 2.0 0.0 0.00 0.00 0.00 68 1009.0
20260507121514 52 263 3.0 0.0 0.00 0.00 0.00 67 1009.1
20260507120012 53 259 4.0 0.0 0.00 0.00 0.00 65 1009.0